Wind_Speed
4 4 3 3 4 4 4 4 4 6 8 10 11 13 16 18 21 23 26 28 29 30 31 33 34 35 37 39 40 42 43 43 44 45 45 44 45 45 44 44 44 44 44 44
3 3 3 4 4 6 6 6 6 8 9 12 14 15 17 18 21 23 24 26 28 29 30 31 33 34 36 38 39 40 41 42 43 44 45 44 45 45 44 44 44 44 43 44
2 2 3 4 6 7 8 9 9 9 10 11 13 15 16 18 21 23 24 25 27 28 29 30 32 34 35 37 38 39 40 41 42 43 43 43 43 43 42 43 43 44 43 44
1 1 3 5 7 8 10 11 11 11 12 12 14 16 18 19 21 22 24 25 27 29 29 29 30 31 32 33 35 37 39 40 41 42 42 42 42 42 41 41 41 41 41 42
1 2 3 6 8 10 11 12 13 13 14 15 16 17 19 21 22 24 24 25 26 27 28 29 29 29 29 30 31 34 36 38 39 39 40 40 40 40 40 40 40 40 40 39
2 3 5 7 8 10 12 13 15 15 15 16 17 18 20 22 23 24 25 26 27 27 27 28 28 28 28 28 29 30 32 34 36 37 38 39 39 38 38 38 38 38 38 38
4 4 6 7 9 11 13 14 16 17 17 17 19 20 22 23 24 24 26 27 26 26 26 26 26 27 27 27 28 29 30 31 33 34 35 36 37 37 37 37 36 36 36 36
5 6 7 9 10 12 14 15 17 18 18 19 20 22 24 25 25 25 26 25 25 24 24 25 25 26 26 26 27 28 28 29 29 30 31 32 34 34 35 35 35 34 34 35
7 7 9 10 11 13 15 17 18 19 20 21 22 24 25 25 25 24 24 24 24 23 23 24 25 25 25 25 26 26 27 27 27 28 29 31 32 33 34 34 34 33 33 34
9 10 10 11 12 14 16 18 19 20 21 22 24 25 26 26 25 24 23 23 24 24 24 24 24 25 24 25 25 25 25 26 26 27 28 29 30 31 32 32 32 32 32 33
11 11 11 12 14 15 17 19 20 21 22 23 25 26 27 26 26 25 24 24 24 25 24 24 24 24 25 25 25 24 24 24 25 25 27 28 28 28 29 30 31 32 32 32
12 13 13 14 15 16 18 20 21 22 23 24 25 26 27 27 26 25 25 25 25 25 24 24 25 25 25 25 25 24 24 24 25 25 25 26 26 27 27 28 29 30 31 31
14 15 15 16 17 18 19 21 22 22 23 24 25 26 27 28 28 27 26 26 25 25 25 25 25 26 26 26 26 25 25 25 25 25 24 24 25 25 26 27 28 29 29 30
16 17 17 18 18 20 21 22 23 23 24 25 27 28 28 29 29 29 28 27 27 26 26 26 27 27 27 27 26 25 25 26 26 26 24 24 24 25 25 26 27 28 29 29
18 18 19 20 21 21 22 23 23 24 25 26 28 29 30 30 30 29 29 28 28 27 27 27 27 28 28 28 27 26 27 27 27 26 24 24 24 25 25 26 26 27 29 29
20 20 21 22 22 23 23 24 25 26 27 28 29 30 31 31 31 31 30 29 28 27 27 27 27 28 28 27 27 26 27 28 27 26 25 24 25 26 27 28 28 29 29 29
22 22 22 23 23 24 25 26 26 27 28 30 30 31 31 32 32 31 31 30 29 29 28 28 28 29 28 28 27 27 27 27 27 26 26 26 27 27 27 28 29 30 30 30
23 23 23 24 24 25 26 27 28 28 29 31 32 32 33 33 33 32 32 31 30 30 30 30 30 29 29 28 28 28 28 27 27 27 26 27 27 27 27 28 28 29 30 30
25 25 24 25 25 26 27 28 29 30 31 32 33 33 34 34 34 33 33 32 32 31 31 31 30 30 29 29 29 29 28 28 28 27 27 27 27 26 27 28 28 29 29 30
26 26 26 26 27 27 29 30 31 32 33 34 34 35 35 35 35 34 33 33 32 32 32 32 31 30 30 29 29 29 28 28 28 27 27 26 26 26 26 26 27 28 28 29
27 27 27 27 28 29 30 31 32 33 34 35 35 35 35 35 35 35 34 34 34 33 33 33 32 31 30 30 30 29 28 28 27 27 26 26 25 25 26 26 26 26 27 28
28 28 28 29 29 30 31 32 33 34 35 35 36 36 36 36 36 36 35 35 35 35 34 33 32 31 30 30 30 30 28 27 27 26 26 26 26 26 26 27 27 27 28 28
30 30 30 30 31 31 32 33 34 35 36 37 37 37 37 37 37 37 36 36 36 35 34 33 33 32 32 32 31 30 29 28 27 27 27 27 27 27 27 27 28 28 28 29
30 30 31 31 32 33 33 34 35 36 37 37 37 37 37 37 37 38 38 37 36 35 35 34 34 33 32 32 31 30 30 29 29 28 28 28 27 27 27 27 28 28 28 28
31 31 31 32 33 34 34 35 36 37 38 38 38 38 38 38 38 38 38 37 36 36 35 35 34 33 33 32 31 31 31 30 29 28 28 28 27 27 26 26 26 26 26 26
31 31 32 33 34 35 35 36 37 38 38 38 39 39 39 39 38 38 38 37 37 36 36 35 34 34 33 32 32 31 31 30 29 28 28 27 27 27 26 25 25 25 24 24
33 33 33 34 34 35 36 37 37 38 38 39 39 39 39 39 38 38 38 38 37 37 36 36 35 34 33 32 31 31 30 29 29 28 28 27 27 26 26 26 25 25 25 25
Wind_Direction
101 82 67 45 24 13 1 342 310 290 284 282 287 287 287 285 283 282 279 278 277 277 276 274 272 271 270 270 268 266 266 266 266 265 265 265 265 266 265 264 263 263 263 263
109 80 59 36 20 8 357 341 324 309 302 296 294 297 294 293 290 288 287 283 281 279 279 276 273 272 272 271 269 267 265 264 265 266 267 266 267 267 266 264 264 264 264 265
111 63 37 23 8 359 353 342 328 320 313 307 303 306 303 300 297 294 291 287 285 285 284 280 276 275 274 272 270 268 266 265 265 265 267 267 267 268 266 264 264 264 265 266
103 20 15 10 359 354 349 344 339 330 323 315 308 308 308 306 304 299 295 291 289 288 286 284 282 280 278 275 272 271 268 266 266 266 266 266 267 267 265 263 263 264 265 266
231 330 344 343 344 342 342 341 338 332 326 322 317 312 311 310 308 305 301 297 295 294 291 290 288 285 283 280 278 275 272 269 267 267 267 266 266 265 263 260 260 262 263 265
263 300 325 330 333 335 337 338 337 334 329 325 324 319 316 313 310 308 306 303 299 296 294 293 290 288 286 283 281 279 277 274 270 269 269 267 265 264 262 260 259 260 262 263
270 293 311 322 329 331 334 334 335 334 331 327 325 323 319 317 312 311 310 308 305 300 297 296 294 293 290 286 285 283 281 278 274 272 270 268 266 264 262 260 259 260 260 260
264 284 304 316 323 327 328 330 330 331 330 328 325 324 321 319 317 313 313 313 310 307 301 298 299 298 295 290 288 287 285 281 277 274 271 269 265 262 259 258 258 259 258 258
267 284 299 309 316 321 324 326 327 328 328 328 326 323 323 321 319 315 314 315 313 310 305 302 302 301 297 294 293 290 287 284 279 274 272 270 267 263 260 257 257 257 257 256
265 280 292 303 311 317 321 323 325 326 326 327 326 323 321 320 318 316 313 313 312 311 308 307 305 303 301 299 297 293 290 286 282 278 273 270 268 267 263 258 256 255 256 256
267 279 289 300 308 313 318 321 323 325 325 326 327 326 324 321 318 315 312 312 311 310 308 306 304 303 304 302 300 297 294 290 286 284 278 273 268 267 264 259 256 256 254 254
268 278 287 296 304 310 316 320 322 323 326 327 328 327 326 323 321 318 314 312 311 309 307 305 304 303 303 301 300 301 298 295 291 288 284 275 268 266 263 259 257 256 254 254
267 276 284 292 300 307 313 318 320 321 323 325 326 327 327 325 323 320 315 312 310 309 306 305 304 304 303 302 301 299 297 295 292 290 286 278 271 266 264 262 259 256 256 255
266 273 281 290 297 304 310 314 316 318 320 322 324 325 325 325 324 321 317 314 311 309 307 305 303 303 302 302 300 299 298 295 293 291 286 278 271 270 268 266 262 259 258 258
267 273 280 289 296 302 307 311 314 317 319 320 322 323 324 323 322 321 318 316 313 310 309 306 305 303 302 301 299 297 295 294 292 290 285 278 275 271 270 268 265 263 260 260
268 274 280 287 293 299 304 308 312 315 317 318 319 321 321 321 321 319 318 316 314 312 310 307 306 304 303 301 300 298 296 294 292 289 284 280 276 273 270 268 266 263 261 260
268 274 279 285 291 297 302 306 310 313 315 317 318 319 320 320 319 317 316 315 313 311 310 308 307 305 302 300 299 298 298 296 293 288 284 281 279 276 272 269 268 266 263 262
269 274 280 286 290 294 299 304 308 310 313 315 317 317 318 318 318 315 314 313 312 310 308 307 307 306 303 300 299 298 297 296 294 290 286 283 282 279 276 273 270 268 265 263
268 274 280 286 290 294 298 303 306 308 311 313 315 316 316 316 316 314 312 311 311 310 307 305 304 304 303 300 299 298 296 294 293 291 287 283 282 280 278 275 272 270 266 264
270 275 280 285 289 294 298 302 305 307 309 312 313 314 315 314 314 313 312 310 309 309 309 306 303 302 301 301 300 299 297 296 293 291 288 285 282 281 280 279 277 273 268 265
270 275 280 284 289 293 297 301 304 307 308 310 312 313 313 313 313 313 311 310 308 308 308 306 304 302 300 299 300 299 298 297 294 291 288 285 283 282 281 280 279 276 272 267
270 275 279 284 289 293 297 300 303 305 307 309 311 312 312 312 312 312 311 309 309 308 307 305 304 302 300 299 299 298 297 296 295 292 288 286 284 282 282 281 279 277 275 271
271 275 280 284 289 292 295 299 302 304 307 308 309 310 311 311 311 311 310 310 309 309 307 305 303 301 300 299 298 296 295 296 295 293 290 288 286 283 282 282 281 279 276 273
272 276 280 284 288 292 295 298 301 303 306 307 308 309 309 310 310 310 309 309 309 308 307 305 303 300 299 298 296 295 294 295 294 292 290 288 287 286 285 284 283 281 277 274
271 276 280 284 288 291 294 297 300 302 305 306 307 307 308 308 309 309 310 310 309 308 307 305 303 301 299 296 295 294 294 295 294 292 289 287 286 286 285 284 283 283 280 276
271 276 280 283 286 290 293 296 299 301 303 305 306 307 307 307 307 308 309 309 309 308 307 304 302 301 299 296 295 294 293 293 293 292 290 287 285 285 285 285 284 283 281 279
272 275 279 283 286 289 293 295 298 300 302 304 305 306 306 306 307 307 308 309 309 308 306 304 303 301 299 297 295 293 293 292 291 290 288 286 285 285 285 285 284 283 282 280
Height
5658 5658 5657 5657 5657 5656 5656 5655 5655 5655 5654 5654 5654 5653 5653 5651 5650 5648 5647 5645 5643 5642 5640 5639 5638 5637 5636 5636 5635 5635 5634 5634 5634 5634 5635 5635 5636 5636 5638 5639 5641 5642 5644 5646
5657 5657 5656 5656 5655 5655 5654 5653 5652 5652 5651 5650 5649 5648 5646 5644 5642 5640 5638 5636 5635 5633 5631 5629 5628 5627 5626 5625 5623 5622 5622 5622 5622 5622 5622 5622 5623 5624 5625 5627 5629 5630 5632 5633
5656 5656 5656 5656 5655 5653 5652 5651 5650 5649 5648 5646 5645 5643 5641 5638 5636 5633 5631 5629 5627 5624 5622 5620 5618 5616 5615 5613 5612 5610 5610 5610 5610 5610 5610 5610 5611 5611 5613 5614 5616 5618 5620 5621
5654 5655 5655 5657 5653 5652 5650 5649 5647 5645 5643 5642 5640 5638 5635 5633 5630 5627 5624 5621 5619 5616 5613 5610 5608 5606 5604 5602 5600 5599 5598 5597 5598 5598 5598 5599 5599 5600 5601 5603 5605 5606 5608 5610
5653 5653 5653 5653 5651 5649 5648 5646 5644 5641 5639 5637 5635 5632 5630 5626 5623 5619 5616 5613 5610 5607 5604 5601 5598 5596 5593 5591 5590 5588 5586 5585 5585 5586 5586 5587 5587 5588 5589 5591 5593 5595 5596 5598
5651 5651 5651 5652 5649 5647 5646 5644 5641 5638 5636 5633 5630 5628 5625 5620 5616 5613 5609 5605 5602 5599 5596 5593 5590 5587 5585 5582 5580 5579 5577 5576 5575 5575 5575 5575 5576 5577 5578 5580 5581 5583 5585 5586
5648 5648 5648 5648 5646 5645 5644 5643 5638 5634 5632 5629 5625 5622 5619 5614 5610 5606 5602 5597 5593 5590 5587 5585 5582 5579 5576 5574 5572 5570 5568 5566 5565 5565 5564 5564 5565 5566 5567 5568 5570 5572 5573 5575
5645 5645 5648 5645 5643 5642 5641 5637 5634 5631 5628 5624 5621 5617 5613 5608 5604 5599 5595 5591 5586 5583 5580 5577 5575 5571 5568 5566 5564 5561 5559 5558 5556 5555 5555 5554 5554 5555 5556 5557 5559 5560 5562 5564
5643 5645 5643 5641 5639 5638 5636 5633 5630 5627 5623 5620 5616 5612 5607 5602 5597 5593 5589 5585 5581 5577 5574 5571 5568 5565 5562 5559 5556 5554 5552 5550 5548 5546 5546 5545 5545 5545 5546 5547 5549 5550 5552 5554
5638 5639 5638 5636 5635 5633 5631 5628 5625 5622 5619 5615 5611 5606 5602 5597 5592 5587 5583 5579 5575 5572 5568 5565 5562 5558 5555 5552 5549 5547 5544 5542 5540 5539 5538 5537 5536 5536 5536 5537 5539 5541 5542 5544
5633 5634 5633 5632 5630 5628 5626 5624 5620 5617 5613 5609 5605 5601 5596 5591 5586 5581 5577 5573 5569 5566 5562 5559 5556 5553 5549 5546 5543 5540 5537 5535 5533 5531 5529 5528 5527 5527 5527 5529 5530 5532 5533 5535
5629 5629 5628 5627 5626 5624 5621 5618 5615 5611 5608 5604 5599 5595 5590 5585 5580 5575 5571 5567 5563 5559 5556 5553 5549 5546 5543 5540 5537 5534 5531 5529 5526 5524 5521 5519 5519 5519 5519 5520 5521 5522 5524 5525
5624 5623 5623 5622 5620 5618 5615 5612 5609 5606 5602 5598 5594 5589 5584 5579 5574 5569 5565 5560 5556 5553 5549 5546 5542 5539 5536 5533 5530 5527 5524 5522 5519 5517 5514 5512 5512 5512 5512 5513 5513 5514 5515 5516
5618 5617 5616 5615 5614 5612 5609 5606 5603 5600 5596 5592 5588 5583 5578 5573 5568 5563 5558 5554 5549 5545 5542 5538 5535 5532 5529 5526 5523 5520 5517 5515 5512 5510 5507 5506 5505 5505 5504 5505 5505 5505 5506 5507
5612 5611 5610 5609 5607 5605 5603 5600 5597 5593 5589 5585 5581 5576 5572 5566 5561 5556 5551 5546 5542 5538 5534 5531 5527 5524 5521 5518 5515 5512 5510 5507 5504 5502 5500 5498 5497 5497 5496 5496 5496 5497 5497 5498
5605 5604 5603 5602 5601 5599 5596 5593 5590 5587 5583 5578 5574 5569 5564 5559 5554 5549 5544 5539 5535 5531 5527 5523 5520 5516 5513 5510 5507 5504 5501 5499 5496 5494 5492 5490 5489 5488 5488 5487 5487 5487 5488 5488
5597 5597 5596 5595 5593 5591 5589 5586 5583 5579 5575 5571 5566 5562 5557 5552 5547 5542 5537 5532 5528 5524 5520 5516 5512 5508 5505 5502 5499 5496 5493 5490 5488 5485 5483 5482 5481 5479 5479 5478 5478 5478 5478 5478
5590 5590 5589 5587 5586 5583 5581 5578 5575 5571 5567 5563 5558 5554 5549 5544 5539 5534 5529 5524 5520 5516 5512 5508 5504 5500 5497 5494 5491 5488 5485 5482 5479 5476 5474 5473 5471 5470 5469 5469 5468 5468 5468 5469
5581 5581 5580 5579 5577 5575 5573 5570 5566 5563 5559 5555 5550 5546 5541 5536 5531 5526 5521 5516 5512 5508 5503 5499 5495 5492 5488 5485 5482 5479 5476 5473 5470 5468 5465 5464 5462 5461 5460 5459 5459 5458 5458 5459
5573 5573 5572 5570 5569 5567 5564 5561 5558 5554 5550 5546 5542 5537 5532 5527 5522 5517 5512 5508 5503 5499 5495 5491 5487 5483 5480 5477 5473 5470 5467 5464 5461 5459 5456 5455 5453 5452 5451 5450 5449 5449 5448 5449
5564 5564 5563 5561 5560 5558 5555 5552 5549 5545 5541 5537 5533 5528 5523 5518 5513 5508 5503 5499 5495 5490 5486 5482 5478 5474 5471 5468 5465 5461 5458 5455 5452 5450 5448 5446 5445 5444 5442 5441 5440 5439 5439 5439
5554 5554 5553 5552 5550 5548 5546 5543 5540 5536 5532 5528 5523 5519 5514 5509 5504 5499 5494 5490 5485 5481 5477 5472 5469 5465 5462 5459 5456 5452 5449 5447 5444 5441 5439 5438 5436 5435 5434 5432 5431 5430 5429 5429
5545 5544 5544 5542 5541 5538 5536 5533 5530 5526 5522 5518 5514 5509 5504 5499 5495 5490 5485 5481 5476 5472 5467 5463 5459 5456 5453 5450 5446 5443 5441 5438 5435 5433 5431 5429 5427 5426 5424 5423 5421 5420 5419 5418
5534 5534 5533 5532 5530 5528 5526 5523 5519 5516 5512 5508 5504 5499 5494 5490 5485 5480 5475 5471 5466 5462 5458 5454 5450 5446 5443 5440 5437 5434 5432 5429 5427 5424 5422 5420 5418 5416 5415 5413 5411 5410 5409 5408
5524 5523 5523 5521 5520 5518 5515 5512 5509 5505 5502 5498 5493 5489 5484 5480 5475 5470 5466 5461 5456 5452 5448 5444 5440 5436 5433 5430 5427 5425 5422 5420 5417 5415 5413 5411 5409 5407 5405 5404 5402 5400 5399 5398
5513 5513 5512 5511 5509 5507 5504 5501 5498 5495 5491 5487 5482 5478 5474 5469 5465 5460 5456 5451 5446 5442 5438 5434 5430 5426 5423 5420 5417 5415 5412 5410 5407 5405 5403 5401 5400 5398 5396 5395 5393 5392 5390 5389
5501 5501 5500 5499 5497 5495 5493 5490 5487 5484 5480 5476 5472 5467 5463 5459 5454 5450 5445 5441 5436 5432 5428 5424 5420 5416 5413 5410 5407 5404 5402 5400 5398 5396 5394 5392 5390 5389 5387 5386 5384 5383 5382 5381